Terminal Aerodrome Forecast
Issued by NWS El Paso, TX

Home | Current Version | Previous Version | Text Only | Print | Product List | Glossary On
Versions: 1 2 3 4 5 6 7 8 9 10 11 12 13 14 15 16
000
FTUS44 KEPZ 280500
TAFELP
TAF
KELP 280526Z 2806/2906 29009KT P6SM VCTS SCT100CB BKN250
     FM281100 03008KT P6SM SCT100 BKN250
     FM282000 12009KT P6SM VCTS SCT080CB SCT250
     FM290400 VRB04KT P6SM SCT120 SCT250=

USA.gov is the U.S. government's official web portal to all federal, state and local government web resources and services.